Location: Oshawa
(43.9000°N, 78.8670°W)
Time: 17:44:40
(UTC-05:00)

S-56A Canister/Altair - All Passes

Search period start: 20 November 2017 00:00
Search period end: 30 November 2017 00:00
Orbit: 635 x 2499 km, 38.9° (Epoch: 19 November)

Date Brightness Start Highest point End Pass type
(mag) Time Alt. Az. Time Alt. Az. Time Alt. Az.
20 Nov - 02:52:36 10° SSW 03:04:16 30° SE 03:15:58 10° E visible
20 Nov - 04:54:55 10° SW 05:09:27 57° SSE 05:22:22 10° E visible
20 Nov - 07:00:41 10° WSW 07:15:37 71° S 07:27:08 10° E daylight
20 Nov - 09:07:49 10° W 09:21:14 58° SSW 09:30:41 10° SE daylight
20 Nov - 11:15:51 10° W 11:24:53 26° SW 11:31:40 10° S daylight
21 Nov - 02:20:19 10° S 02:31:12 27° SE 02:42:27 10° E visible
21 Nov - 04:21:53 10° SW 04:36:07 54° SSE 04:49:25 10° E visible
21 Nov - 06:27:14 10° WSW 06:42:19 71° S 06:54:28 10° E visible
21 Nov - 08:34:12 10° W 08:48:14 62° SSW 08:58:20 10° ESE daylight
21 Nov - 10:42:01 10° W 10:52:17 31° SW 10:59:52 10° SSE daylight
22 Nov - 01:48:13 10° S 01:58:11 24° SE 02:08:45 10° E visible
22 Nov - 03:48:59 10° SW 04:02:49 51° SSE 04:16:21 10° E visible
22 Nov - 05:53:52 10° WSW 06:08:57 71° S 06:21:43 10° E visible
22 Nov - 08:00:37 10° W 08:15:07 65° SSW 08:25:53 10° ESE daylight
22 Nov - 10:08:14 10° W 10:19:36 36° SW 10:27:56 10° SSE daylight
23 Nov - 01:16:22 10° S 01:25:15 21° SE 01:34:48 10° E visible
23 Nov - 03:16:11 10° SW 03:29:32 48° SSE 03:43:11 10° E visible
23 Nov - 05:20:35 10° WSW 05:35:34 70° S 05:48:52 10° E visible
23 Nov - 07:27:05 10° W 07:41:55 68° SSW 07:53:21 10° ESE daylight
23 Nov - 09:34:29 10° W 09:46:49 41° SW 09:55:53 10° SSE daylight
23 Nov - 11:45:53 10° WSW 11:49:22 12° WSW 11:52:30 10° SW daylight
24 Nov - 00:44:50 10° SSE 00:52:23 17° SE 01:00:34 10° E visible
24 Nov - 02:43:32 10° SSW 02:56:18 45° SSE 03:09:54 10° E visible
24 Nov - 04:47:25 10° WSW 05:02:09 68° SSE 05:15:55 10° E visible
24 Nov - 06:53:36 10° W 07:08:39 70° S 07:20:44 10° ESE visible
24 Nov - 09:00:48 10° W 09:13:55 45° SSW 09:23:42 10° SE daylight
24 Nov - 11:10:42 10° W 11:16:52 16° SW 11:22:07 10° SSW daylight
25 Nov - 00:13:48 10° SSE 00:19:35 14° SE 00:25:49 10° E visible
25 Nov - 02:11:00 10° SSW 02:23:07 41° SE 02:36:31 10° E visible
25 Nov - 04:14:20 10° WSW 04:28:44 66° SSE 04:42:53 10° E visible
25 Nov - 06:20:11 10° W 06:35:18 71° S 06:48:01 10° ESE visible
25 Nov - 08:27:10 10° W 08:40:56 50° SSW 08:51:26 10° SE daylight
25 Nov - 10:36:13 10° W 10:44:18 19° SW 10:50:58 10° S daylight
25 Nov - 23:44:05 10° SE 23:46:51 11° ESE 23:49:46 10° ESE visible
26 Nov - 01:38:36 10° SSW 01:50:00 37° SE 02:03:02 10° E visible
26 Nov - 03:41:22 10° WSW 03:55:20 64° SSE 04:09:46 10° E visible
26 Nov - 05:46:51 10° W 06:01:54 72° S 06:15:13 10° ESE visible
26 Nov - 07:53:36 10° W 08:07:51 54° SSW 08:19:03 10° SE daylight
26 Nov - 10:02:02 10° W 10:11:39 23° SW 10:19:26 10° S daylight
27 Nov - 01:06:21 10° SSW 01:16:58 33° SE 01:29:24 10° E visible
27 Nov - 03:08:30 10° SW 03:21:58 61° SSE 03:36:33 10° E visible
27 Nov - 05:13:35 10° W 05:28:28 73° S 05:42:18 10° E visible
27 Nov - 07:20:05 10° W 07:34:41 57° SSW 07:46:33 10° SE daylight
27 Nov - 09:28:03 10° W 09:38:54 28° SW 09:47:40 10° S daylight
28 Nov - 00:34:15 10° S 00:44:02 29° SE 00:55:39 10° E visible
28 Nov - 02:35:45 10° SW 02:48:38 58° SSE 03:03:15 10° E visible
28 Nov - 04:40:26 10° W 04:55:01 73° S 05:09:18 10° E visible
28 Nov - 06:46:39 10° W 07:01:25 61° SSW 07:13:57 10° SE visible
28 Nov - 08:54:11 10° W 09:06:04 32° SW 09:15:43 10° SSE daylight
29 Nov - 00:02:20 10° S 00:11:10 25° SE 00:21:46 10° E visible
29 Nov - 02:03:07 10° SW 02:15:22 55° SSE 02:29:52 10° E visible
29 Nov - 04:07:23 10° WSW 04:21:33 72° S 04:36:12 10° E visible
29 Nov - 06:13:17 10° W 06:28:06 64° SSW 06:41:14 10° ESE visible
29 Nov - 08:20:27 10° W 08:33:09 36° SW 08:43:36 10° SSE daylight
29 Nov - 23:30:38 10° S 23:38:24 22° SE 23:47:41 10° E visible
